sat.trackr.live / text

‹ back to catalog

R5-S9

NORAD 69901 · 2026-156AJ

PAYLOAD ACTIVE UNKNOWN

§ Identity

Operator
Country
US
Launch date
2026-07-07
Launch site
AFWTR
Launch vehicle
Mass (kg)
RCS (m²)

External: N2YO · Heavens-Above · Gunter

§ Orbital elements

Epoch: 2026-09-20T03:56:09.136032Z

Period
96.57 min
Inclination
97.7439°
Eccentricity
0.0003231
Mean motion
14.91178548 rev/d
Perigee alt
592.0 km
Apogee alt
596.5 km
Semi-major
6,972.4 km
B*
6.5204e-5
RAAN
162.2787°
Arg perigee
230.6571°
Mean anomaly
129.4361°
Rev number
1,115

§ Raw data

R5-S91 69901U 26156AJ  26263.16399463  .00000592  00000+0  65204-4 0  99912 69901  97.7439 162.2787 0003231 230.6571 129.4361 14.91178548 11154

JSON: /api/v1/satellites/69901 · /tle

For live sub-satellite position, see the globe view (requires WebGL).

§ Visibility from observer

Set your observer location to see the next 7 days of passes ≥ 10°. The values pass through the URL so the page stays shareable.

No JS? Fill the form by hand. The geolocation button needs JavaScript.